DW7061 Weather Reports


Display with metric or nautical units.
time (UTC)temp
F
wind
direction
speed
MPH
gust
MPH
rain 1hr
in
rain 24hr
in
rain mn
in
humidity
%
barometer
mb
20260902222518 66 0.0 0.0 0.00 0.00 0.00 92 1020.4
20260902221517 66 0.0 0.0 0.00 0.00 0.00 92 1020.4
20260902220517 66 0.0 0.0 0.00 0.00 0.00 93 1020.3
20260902215518 66 0.0 0.0 0.00 0.00 0.00 93 1020.4
20260902214517 66 0.0 0.0 0.00 0.00 0.00 92 1020.4
20260902213519 66 0.0 0.0 0.00 0.00 0.00 91 1020.3
20260902212538 67 0.0 0.0 0.00 0.00 0.00 90 1020.4
20260902211537 67 0.0 0.0 0.00 0.00 0.00 89 1020.4
20260902210517 67 0.0 0.0 0.00 0.00 0.00 88 1020.3
20260902205518 68 0.0 0.0 0.00 0.00 0.00 85 1020.2
20260902204537 68 0.0 1.0 0.00 0.00 0.00 84 1020.0
20260902203517 68 0.0 1.0 0.00 0.00 0.00 84 1019.8
20260902202518 68 0.0 1.0 0.00 0.00 0.00 85 1020.2
20260902201517 68 0.0 1.0 0.00 0.00 0.00 86 1020.3
20260902200517 68 0.0 1.0 0.00 0.00 0.00 89 1020.4
20260902195518 67 0.0 1.0 0.00 0.00 0.00 89 1020.6
20260902194517 66 0.0 0.0 0.00 0.00 0.00 90 1020.7
20260902193517 67 0.0 0.0 0.00 0.00 0.00 87 1021.0
20260902192517 67 0.0 0.0 0.00 0.00 0.00 85 1021.0
20260902191537 68 0.0 0.0 0.00 0.00 0.00 83 1021.1
20260902190537 68 0.0 1.0 0.00 0.00 0.00 84 1021.0
20260902185517 68 0.0 1.0 0.00 0.00 0.00 83 1020.9
20260902184517 69 0.0 1.0 0.00 0.00 0.00 83 1021.0
20260902183518 69 0.0 2.0 0.00 0.00 0.00 81 1020.9
20260902182517 69 0.0 3.0 0.00 0.00 0.00 82 1021.1
20260902181517 69 0.0 1.0 0.00 0.00 0.00 81 1021.0
20260902180517 69 0.0 1.0 0.00 0.00 0.00 80 1021.2
20260902175518 69 0.0 0.0 0.00 0.00 0.00 82 1021.3
20260902174518 69 0.0 3.0 0.00 0.00 0.00 80 1021.5
20260902173518 69 0.0 1.0 0.00 0.00 0.00 80 1021.4
20260902172517 69 0.0 1.0 0.00 0.00 0.00 81 1021.3
20260902171517 68 0.0 2.0 0.00 0.00 0.00 82 1021.1
20260902170538 68 0.0 2.0 0.00 0.00 0.00 83 1021.1
20260902165517 68 0.0 3.0 0.00 0.00 0.00 82 1021.2
20260902164517 67 0.0 2.0 0.00 0.00 0.00 83 1021.3
20260902163518 67 0.0 1.0 0.00 0.00 0.00 87 1021.5
20260902162517 67 0.0 1.0 0.00 0.00 0.00 85 1021.7
20260902161517 66 0.0 3.0 0.00 0.00 0.00 84 1021.6
20260902160517 66 0.0 2.0 0.00 0.00 0.00 85 1021.8
20260902155517 66 0.0 1.0 0.00 0.00 0.00 88 1021.9
20260902154558 66 0.0 1.0 0.00 0.00 0.00 89 1021.8
20260902153537 65 0.0 2.0 0.00 0.00 0.00 89 1021.9
20260902152518 64 0.0 0.0 0.00 0.00 0.00 89 1021.8
20260902151517 64 0.0 1.0 0.00 0.00 0.00 89 1022.1
20260902150519 64 0.0 1.0 0.00 0.00 0.00 90 1022.3
20260902145517 64 0.0 1.0 0.00 0.00 0.00 91 1022.2
20260902144518 64 0.0 3.0 0.00 0.00 0.00 92 1022.1
20260902143517 63 0.0 1.0 0.00 0.00 0.00 93 1022.1
20260902142517 63 0.0 0.0 0.00 0.00 0.00 94 1022.0
20260902141517 63 0.0 1.0 0.00 0.00 0.00 95 1022.1
20260902140517 62 0.0 1.0 0.00 0.00 0.00 95 1022.1
20260902135537 62 0.0 1.0 0.00 0.00 0.00 95 1021.7
20260902134517 61 0.0 3.0 0.00 0.00 0.00 96 1021.5
20260902133517 61 0.0 1.0 0.00 0.00 0.00 96 1021.2
20260902132658 60 0.0 3.0 0.00 0.00 0.00 96 1021.2
20260902131517 60 0.0 1.0 0.00 0.00 0.00 97 1021.2
20260902130517 60 0.0 1.0 0.00 0.00 0.00 97 1021.2
20260902125518 60 0.0 1.0 0.00 0.00 0.00 97 1021.2
20260902124517 60 0.0 1.0 0.00 0.00 0.00 97 1021.2
20260902123537 60 0.0 0.0 0.00 0.00 0.00 97 1021.3
20260902122537 60 0.0 1.0 0.00 0.00 0.00 97 1021.1
20260902121517 59 0.0 0.0 0.00 0.00 0.00 97 1021.1
20260902120537 59 0.0 0.0 0.00 0.00 0.00 97 1021.3
20260902115518 59 0.0 0.0 0.00 0.00 0.00 97 1021.3
20260902114517 59 0.0 0.0 0.00 0.00 0.00 98 1021.2
20260902113517 58 0.0 0.0 0.00 0.00 0.00 97 1021.4
20260902112518 58 0.0 0.0 0.00 0.00 0.00 97 1021.4
20260902111517 58 0.0 0.0 0.00 0.00 0.00 97 1021.5
20260902110517 58 0.0 0.0 0.00 0.00 0.00 97 1021.3
20260902105517 58 0.0 0.0 0.00 0.00 0.00 97 1021.3
20260902104537 57 0.0 0.0 0.00 0.00 0.00 97 1021.2
20260902103517 57 0.0 0.0 0.00 0.00 0.00 97 1021.0
20260902102518 57 0.0 0.0 0.00 0.00 0.00 97 1020.8
20260902101517 57 0.0 0.0 0.00 0.00 0.00 97 1020.7
20260902100517 57 0.0 0.0 0.00 0.00 0.00 97 1020.7
20260902095517 57 0.0 0.0 0.00 0.00 0.00 97 1020.6
20260902094518 57 0.0 0.0 0.00 0.00 0.00 97 1020.4
20260902093517 57 0.0 0.0 0.00 0.00 0.00 97 1020.4
20260902092517 57 0.0 0.0 0.00 0.00 0.00 97 1020.3
20260902091518 57 0.0 0.0 0.00 0.00 0.00 97 1020.3
20260902090517 57 0.0 0.0 0.00 0.00 0.00 97 1020.2
20260902085517 57 0.0 0.0 0.00 0.00 0.00 97 1020.2
20260902084518 57 0.0 0.0 0.00 0.00 0.00 97 1020.2
20260902083517 58 0.0 0.0 0.00 0.00 0.00 97 1020.2
20260902082517 58 0.0 0.0 0.00 0.00 0.00 97 1020.0
20260902081538 58 0.0 0.0 0.00 0.00 0.00 97 1019.9
20260902080517 58 0.0 0.0 0.00 0.00 0.00 97 1020.2
20260902075537 58 0.0 0.0 0.00 0.00 0.00 97 1020.1
20260902074538 58 0.0 0.0 0.00 0.00 0.00 97 1020.1
20260902073517 58 0.0 0.0 0.00 0.00 0.00 97 1020.3
20260902072518 58 0.0 0.0 0.00 0.00 0.00 97 1020.2
20260902071517 58 0.0 0.0 0.00 0.00 0.00 97 1020.2
20260902070517 58 0.0 0.0 0.00 0.00 0.00 97 1020.2
20260902065517 58 0.0 0.0 0.00 0.00 0.00 97 1020.4
20260902064518 58 0.0 0.0 0.00 0.00 0.00 97 1020.7
20260902063517 58 0.0 0.0 0.00 0.00 0.00 97 1020.3
20260902062537 58 0.0 0.0 0.00 0.00 0.00 97 1020.3
20260902061517 58 0.0 0.0 0.00 0.00 0.00 97 1020.3
20260902060518 57 0.0 0.0 0.00 0.00 0.00 97 1020.2
20260902055517 58 0.0 0.0 0.00 0.00 0.00 97 1020.2
20260902054517 57 0.0 0.0 0.00 0.00 0.00 97 1020.2
20260902053538 57 0.0 0.0 0.00 0.00 0.00 97 1020.0
20260902052557 57 0.0 0.0 0.00 0.00 0.00 97 1020.0
20260902051517 57 0.0 0.0 0.00 0.00 0.00 97 1020.1
20260902050517 57 0.0 0.0 0.00 0.00 0.00 97 1020.1
20260902045538 57 0.0 0.0 0.00 0.00 0.00 97 1020.2
20260902044517 57 0.0 0.0 0.00 0.00 0.00 97 1019.8
20260902043517 57 0.0 0.0 0.00 0.00 0.00 97 1019.6
20260902042539 57 0.0 0.0 0.00 0.00 0.00 97 1019.2
20260902041517 57 0.0 0.0 0.00 0.00 0.00 97 1019.4
20260902040519 57 0.0 0.0 0.00 0.00 0.00 97 1019.0
20260902035518 57 0.0 0.0 0.00 0.00 0.00 97 1019.0
20260902034518 57 0.0 0.0 0.00 0.00 0.00 97 1019.0
20260902033518 58 0.0 1.0 0.00 0.00 0.00 97 1018.7
20260902032518 58 0.0 0.0 0.00 0.00 0.00 97 1018.6
20260902031517 58 0.0 0.0 0.00 0.00 0.00 97 1018.4
20260902030517 58 0.0 0.0 0.00 0.00 0.00 97 1018.5
20260902025518 58 0.0 0.0 0.00 0.00 0.00 97 1018.6
20260902024518 58 0.0 0.0 0.00 0.00 0.00 97 1018.9
20260902023537 58 0.0 0.0 0.00 0.00 0.00 97 1019.0
20260902022518 59 0.0 0.0 0.00 0.00 0.00 97 1018.7
20260902021538 59 0.0 0.0 0.00 0.00 0.00 97 1018.6
20260902020517 59 0.0 0.0 0.00 0.00 0.00 97 1018.8
20260902015517 59 0.0 0.0 0.00 0.00 0.00 97 1018.9
20260902014517 59 0.0 0.0 0.00 0.00 0.00 97 1018.8
20260902013518 59 0.0 0.0 0.00 0.00 0.00 97 1018.8
20260902012517 59 0.0 0.0 0.00 0.00 0.00 97 1018.5
20260902011517 59 0.0 1.0 0.00 0.00 0.00 97 1018.6
20260902010538 59 0.0 0.0 0.00 0.00 0.00 97 1018.7
20260902005538 59 0.0 0.0 0.00 0.00 0.00 97 1018.5
20260902004518 60 0.0 0.0 0.00 0.00 0.00 97 1018.4
20260902003518 60 0.0 0.0 0.00 0.00 0.00 97 1018.2
20260902002517 60 0.0 0.0 0.00 0.00 0.00 97 1018.2
20260902001518 60 0.0 2.0 0.00 0.00 0.00 97 1017.9
20260902000517 60 0.0 0.0 0.00 0.00 0.00 97 1017.7
20260901235518 60 0.0 0.0 0.00 0.00 0.00 97 1017.9
20260901234517 60 0.0 0.0 0.00 0.00 0.00 97 1017.9
20260901233517 60 0.0 0.0 0.00 0.00 0.00 97 1017.7
20260901232539 60 0.0 0.0 0.00 0.00 0.00 97 1017.6
20260901231518 60 0.0 0.0 0.00 0.00 0.00 97 1017.7
20260901230517 60 0.0 0.0 0.00 0.00 0.00 97 1017.9
20260901225518 60 0.0 0.0 0.00 0.00 0.00 97 1018.1
20260901224518 60 0.0 0.0 0.00 0.00 0.00 97 1017.9
20260901223518 60 0.0 0.0 0.00 0.00 0.00 97 1017.7